Location: Ceske Budejovice
(48.9830°N, 14.4670°E)
Time: 19:20:38
(UTC+02:00)

ISS - Pass Details

Date: 06 July 2022
Orbit: 412 x 419 km, 51.6° (Epoch: 09 August)

Event Time Altitude Azimuth Distance (km) Brightness Sun altitude
Exits shadow 01:02:05 14° 99° (E) 1,282 -1.4 -18.3°
Drops below altitude 10° 01:02:48 10° 90° (E) 1,496 -1.0 -18.3°
Sets 01:05:14 0° 74° (ENE) 2,365 0.3 -18.3°
